San Antonio Del Tachira Airport

Jump to: basic info | weather | frequencies | runways | comments

Related pages: nearby airports | nearby navaids | notams | map

Basic information (top)

Codes: SVZ SVSA
Location: lon 7.840830, lat -72.439697, elev 1,312 ft / 400 m msl
Status: medium_airport

Weather (top)

Current conditions (rec'd 2015/03/27 09:00Z):

SVSA 270900Z /////KT 9999 SCT020 23/22 Q1015

Airport forecast (rec'd 2015/03/18 18:00Z):

TAF SVSA 181600Z 1818/1918 36006KT 8000 VCFG OVC017 TX29/17Z TN24/10Z 
      TEMPO 1818/1900 18004KT 9000 VCFG SCT013 BKN080 
     FM190100 00000KT 9999 SCT020

Frequencies (top)

Verify before use: may be inaccurate or out of date.

GND: 121.9 MHz (GND)
TWR: 118.5 MHz (TWR)

Runways (top)

17/35: 6,135 x 131 ft (1,870 x 40 m) — paved — lighted

Latest comments (top)

No comments yet for San Antonio Del Tachira Airport

More... (top)

See also NOTAMs and nearby airports and navaids, or visit the San Antonio Del Tachira Airport page at the main OurAirports website..